Tracking 33188 objects as of 10-Feb-2026
HD Live streaming from Space Station
objects crossing your sky now

COSMOS 1634

Track COSMOS 1634 now!
10-day predictions
COSMOS 1634 is classified as:


NORAD ID: 15597
Int'l Code: 1985-022A
Perigee: 960.9 km
Apogee: 1,014.4 km
Inclination: 82.9 °
Period: 104.7 minutes
Semi major axis: 7358 km
RCS: 2.2034 m2 (large)
Launch date: March 14, 1985
Source: Commonwealth of Independent States (former USSR) (CIS)
Launch site: PLESETSK MISSILE AND SPACE COMPLEX (PKMTR)
Your satellite tracking list
Your tracking list is empty




NASA's NSSDC Master Catalog

Two Line Element Set (TLE):
1 15597U 85022A   26041.14143332  .00000060  00000-0  45981-4 0  9995
2 15597  82.9420 309.9137 0036370  32.9780 133.2078 13.75316432 52730
Source of the keplerian elements: AFSPC